Regional Weather Roundup
Issued by NWS New Orleans/Baton Rouge, LA

Home | Current Version | Previous Version | Text Only | Print | Product List | Glossary On
Versions: 1 2 3 4 5 6 7 8 9 10 11 12 13 14 15 16 17 18 19 20 21 22 23 24 25 26 27 28 29 30 31 32 33 34 35 36 37 38 39 40 41 42 43 44 45 46 47 48 49 50
000
ASUS44 KLIX 230010
RWRLIX
NEW ORLEANS REGIONAL WEATHER ROUNDUP
NATIONAL WEATHER SERVICE NEW ORLEANS LA
700 PM CDT TUE JUL 22 2014

NOTE: "FAIR" INDICATES FEW OR NO CLOUDS BELOW 12,000 FEET WITH NO
      SIGNIFICANT WEATHER AND/OR OBSTRUCTIONS TO VISIBILITY.
      SKY/WX - SKY CONDITION AND SIGNIFICANT WEATHER.
      TMP - AIR TEMPERATURE.     DP    - DEWPOINT TEMPERATURE.
      RH  - RELATIVE HUMIDITY.   PRES  - PRESSURE.
      HI  - HEAT INDEX.          WCI   - WIND CHILL INDEX.

*  THESE STATIONS ARE NOT NWS OR FAA STATIONS AND ARE NOT UNDER
   NWS QUALITY CONTROL.

LAZ038-040-048-061>063-065>067-069-230100-
SOUTHEAST LOUISIANA

CITY           SKY/WX    TMP DP  RH WIND       PRES   REMARKS
N.O. AUDUBON     N/A     84  71  65 MISG        N/A
6HR MIN TEMP:  78; 6HR MAX TEMP:  93; 6HR PCP:  0.02;

N.O. INTL ARPT CLOUDY    81  72  74 SE3       30.00R
6HR MIN TEMP:  79; 6HR MAX TEMP:  89; 6HR PCP:  0.04;

N.O. LAKEFRONT CLOUDY    83  73  72 CALM      30.02R
6HR MIN TEMP:  83; 6HR MAX TEMP:  90;

N.O. DOWNTOWN*   N/A     84  70  61 CALM      30.01R
6HR MIN TEMP:  82; 6HR MAX TEMP:  91; 6HR PCP:  0.04;

SLIDELL        LGT RAIN  76  73  91 CALM      30.00S
6HR MIN TEMP:  76; 6HR MAX TEMP:  91; 6HR PCP:  0.02;

BATON ROUGE    CLOUDY    81  71  71 NE17      30.01S THUNDER
6HR MIN TEMP:  81; 6HR MAX TEMP:  92; 6HR PCP: TRACE;

BOOTHVILLE     CLOUDY    80  73  79 CALM      30.00S
6HR MIN TEMP:  75; 6HR MAX TEMP:  88; 6HR PCP:  2.78;

BELLE CHASSE   PTSUNNY   82  71  69 CALM      29.99F
6HR MIN TEMP:  81; 6HR MAX TEMP:  90; 6HR PCP: TRACE;

BOGALUSA*      LGT RAIN  75  70  86 CALM      30.03F
6HR MIN TEMP:  74; 6HR MAX TEMP:  87; 6HR PCP:  0.08;

GALLIANO*      NOT AVBL
NEW ROADS*       N/A     77  73  88 N7        30.02S
6HR MIN TEMP:  76; 6HR MAX TEMP:  89; 6HR PCP:  0.02;

GONZALES*      MOCLDY    85  75  71 CALM      29.98F
6HR MIN TEMP:  85; 6HR MAX TEMP:  90;

HAMMOND*       CLOUDY    84  72  65 NE5       30.02S
HOUMA*         MOSUNNY   84  72  65 E3        30.00F FOG
PORT FOURCHON* CLEAR     82  75  78 SE3       30.00F

$$

MSZ070-080>082-230100-
SOUTHERN MISSISSIPPI

CITY           SKY/WX    TMP DP  RH WIND       PRES   REMARKS
MCCOMB         PTSUNNY   82  72  71 VRB5      30.03S
6HR MIN TEMP:  82; 6HR MAX TEMP:  88;

GULFPORT       CLOUDY    81  68  64 NW8       29.99F
6HR MIN TEMP:  81; 6HR MAX TEMP:  92;

BILOXI         PTSUNNY   78  70  76 CALM      30.00F
6HR MIN TEMP:  76; 6HR MAX TEMP:  90;

PASCAGOULA     MOSUNNY   78  71  79 NW5       30.01S
6HR MIN TEMP:  78; 6HR MAX TEMP:  88;

STENNIS ARPT*  PTSUNNY  N/A N/A N/A N6        30.02S

$$

COASTAL OBSERVATIONS
LAKE AND NEARSHORE STATIONS

STATION/POSITION TIME  TEMP    WIND        PRES    WAVE
                       AIR SEA DIR/SP/G            HT/PER
                 (UTC) (F)     (DEG/KT/KT) (MB)    (FT/S)
PASCAGOULA       0000   84     290/  3/  4 1015.3
WAVELAND YACHT   0000   78      50/  5/  9 1015.3
GRAND ISLE       0000   81 85   CALM  /  1 1015.8
SOUTHWEST PASS   0000   84 85  250/  5/  6 1016.1
NEW CANAL        0000   84 84  240/  3/  4 1016.4
SHELL BEACH      0000   82 82  270/  7/  8 1015.9

OFFSHORE STATIONS

STATION/POSITION TIME  TEMP    WIND        PRES    WAVE
                       AIR SEA DIR/SP/G            HT/PER
                 (UTC) (F)     (DEG/KT/KT) (MB)    (FT/S)
64 S DAUPHIN ISL 2250   83 86  230/  6/  8 1016.4

$$



USA.gov is the U.S. government's official web portal to all federal, state and local government web resources and services.